Hourly Weather Kitin

Today, 30 July, Friday

Time Temperature Precipitation Wind Pressure Humidity
00:00 +19°C° 0 mm 2 mps 744 mmHg 97%
01:00 +18°C° 0 mm 2 mps 744 mmHg 97%
02:00 +18°C° 0 mm 2 mps 744 mmHg 97%
03:00 +18°C° 0 mm 2 mps 744 mmHg 96%
04:00 +18°C° 0 mm 2 mps 744 mmHg 96%
05:00 +17°C° 0 mm 2 mps 744 mmHg 95%
06:00 +19°C° 0 mm 3 mps 744 mmHg 89%
07:00 +20°C° 0 mm 3 mps 745 mmHg 82%
08:00 +22°C° 0 mm 4 mps 745 mmHg 76%
09:00 +25°C° 0 mm 4 mps 745 mmHg 65%
10:00 +26°C° 0 mm 5 mps 745 mmHg 54%
11:00 +28°C° 0 mm 5 mps 745 mmHg 42%
12:00 +28°C° 0 mm 6 mps 745 mmHg 41%
13:00 +28°C° 0 mm 6 mps 745 mmHg 40%
14:00 +28°C° 0 mm 6 mps 744 mmHg 38%
15:00 +28°C° 0 mm 6 mps 744 mmHg 41%
16:00 +27°C° 0 mm 5 mps 744 mmHg 44%
17:00 +27°C° 0 mm 4 mps 744 mmHg 46%
18:00 +26°C° 0 mm 3 mps 744 mmHg 51%
19:00 +24°C° 0 mm 2 mps 744 mmHg 55%
20:00 +23°C° 0 mm 2 mps 744 mmHg 59%
21:00 +23°C° 0 mm 2 mps 744 mmHg 61%
22:00 +21°C° 0 mm 2 mps 744 mmHg 63%
23:00 +20°C° 0 mm 2 mps 744 mmHg 65%

Tomorrow, 31 July, Saturday

Time Temperature Precipitation Wind Pressure Humidity
00:00 +20°C° 0 mm 2 mps 744 mmHg 69%
01:00 +19°C° 0 mm 2 mps 744 mmHg 73%
02:00 +18°C° 0 mm 2 mps 744 mmHg 77%
03:00 +18°C° 0 mm 2 mps 745 mmHg 79%
04:00 +17°C° 0 mm 2 mps 745 mmHg 81%
05:00 +17°C° 0 mm 2 mps 745 mmHg 83%
06:00 +19°C° 0 mm 3 mps 745 mmHg 74%
07:00 +21°C° 0 mm 3 mps 745 mmHg 65%
08:00 +24°C° 0 mm 3 mps 745 mmHg 56%
09:00 +26°C° 0 mm 4 mps 745 mmHg 52%
10:00 +27°C° 0 mm 4 mps 745 mmHg 47%
11:00 +29°C° 0 mm 4 mps 745 mmHg 42%
12:00 +30°C° 0 mm 5 mps 745 mmHg 40%
13:00 +32°C° 0 mm 5 mps 745 mmHg 39%
14:00 +32°C° 0 mm 5 mps 745 mmHg 37%
15:00 +32°C° 0 mm 4 mps 744 mmHg 40%
16:00 +32°C° 0 mm 4 mps 744 mmHg 42%
17:00 +30°C° 0 mm 4 mps 744 mmHg 44%
18:00 +28°C° 0 mm 3 mps 744 mmHg 52%
19:00 +26°C° 0 mm 2 mps 744 mmHg 60%
20:00 +24°C° 0 mm 1 mps 744 mmHg 67%
21:00 +23°C° 0.6 mm 2 mps 744 mmHg 75%
22:00 +21°C° 0.6 mm 2 mps 744 mmHg 82%
23:00 +20°C° 0.6 mm 3 mps 744 mmHg 90%

Day after tomorrow, 1 August, Sunday

Time Temperature Precipitation Wind Pressure Humidity
00:00 +19°C° 0.6 mm 2 mps 744 mmHg 91%
01:00 +19°C° 0.6 mm 2 mps 744 mmHg 93%
02:00 +20°C° 0.6 mm 1 mps 744 mmHg 94%
03:00 +20°C° 0.3 mm 1 mps 744 mmHg 95%
04:00 +20°C° 0.3 mm 1 mps 744 mmHg 95%
05:00 +20°C° 0.3 mm 1 mps 744 mmHg 95%
06:00 +21°C° 0.2 mm 1 mps 744 mmHg 91%
07:00 +22°C° 0.2 mm 1 mps 744 mmHg 88%
08:00 +23°C° 0.2 mm 2 mps 744 mmHg 85%
09:00 +24°C° 0.1 mm 2 mps 744 mmHg 79%
10:00 +25°C° 0.1 mm 2 mps 744 mmHg 72%
11:00 +26°C° 0.1 mm 3 mps 744 mmHg 66%
12:00 +27°C° 0 mm 3 mps 744 mmHg 62%
13:00 +27°C° 0 mm 3 mps 744 mmHg 57%
14:00 +28°C° 0 mm 3 mps 744 mmHg 52%
15:00 +28°C° 0 mm 3 mps 744 mmHg 49%
16:00 +29°C° 0 mm 3 mps 744 mmHg 46%
17:00 +29°C° 0 mm 4 mps 744 mmHg 43%
18:00 +27°C° 0 mm 3 mps 744 mmHg 49%
19:00 +25°C° 0 mm 2 mps 744 mmHg 55%
20:00 +23°C° 0 mm 1 mps 744 mmHg 61%
21:00 +22°C° 0 mm 1 mps 744 mmHg 63%
22:00 +21°C° 0 mm 1 mps 744 mmHg 65%
23:00 +20°C° 0 mm 1 mps 744 mmHg 67%

2 August, Monday

Time Temperature Precipitation Wind Pressure Humidity
00:00 +20°C° 0 mm 1 mps 744 mmHg 68%
01:00 +19°C° 0 mm 2 mps 744 mmHg 70%
02:00 +18°C° 0 mm 2 mps 744 mmHg 72%
03:00 +18°C° 0.8 mm 3 mps 743 mmHg 79%
04:00 +18°C° 0.8 mm 3 mps 743 mmHg 87%
05:00 +17°C° 0.8 mm 4 mps 743 mmHg 94%
06:00 +18°C° 0.2 mm 4 mps 742 mmHg 92%
07:00 +19°C° 0.2 mm 4 mps 742 mmHg 91%
08:00 +21°C° 0.2 mm 4 mps 741 mmHg 89%
09:00 +22°C° 0.2 mm 4 mps 741 mmHg 81%
10:00 +25°C° 0.2 mm 4 mps 741 mmHg 73%
11:00 +27°C° 0.2 mm 4 mps 741 mmHg 64%
12:00 +27°C° 0.6 mm 4 mps 741 mmHg 66%
13:00 +27°C° 0.6 mm 5 mps 741 mmHg 67%
14:00 +27°C° 0.6 mm 6 mps 741 mmHg 69%
15:00 +24°C° 0.5 mm 6 mps 741 mmHg 73%
16:00 +23°C° 0.5 mm 6 mps 741 mmHg 77%
17:00 +22°C° 0.5 mm 6 mps 742 mmHg 81%
18:00 +21°C° 0.1 mm 6 mps 742 mmHg 83%
19:00 +19°C° 0.1 mm 5 mps 743 mmHg 85%
20:00 +17°C° 0.1 mm 5 mps 744 mmHg 87%
21:00 +17°C° 0 mm 4 mps 744 mmHg 90%
22:00 +15°C° 0 mm 4 mps 744 mmHg 93%
23:00 +14°C° 0 mm 3 mps 745 mmHg 95%

3 August, Tuesday

Time Temperature Precipitation Wind Pressure Humidity
00:00 +14°C° 0 mm 3 mps 745 mmHg 96%
01:00 +14°C° 0 mm 3 mps 745 mmHg 96%
02:00 +15°C° 0 mm 2 mps 745 mmHg 96%
03:00 +14°C° 0 mm 2 mps 746 mmHg 96%
04:00 +14°C° 0 mm 2 mps 746 mmHg 96%
05:00 +14°C° 0 mm 2 mps 746 mmHg 96%
06:00 +16°C° 0 mm 2 mps 747 mmHg 87%
07:00 +18°C° 0 mm 3 mps 747 mmHg 79%
08:00 +19°C° 0 mm 3 mps 747 mmHg 71%
09:00 +21°C° 0 mm 3 mps 748 mmHg 63%
10:00 +22°C° 0 mm 3 mps 748 mmHg 54%
11:00 +23°C° 0 mm 4 mps 748 mmHg 46%
12:00 +23°C° 0 mm 4 mps 748 mmHg 46%
13:00 +23°C° 0 mm 4 mps 748 mmHg 47%
14:00 +23°C° 0 mm 4 mps 748 mmHg 47%
15:00 +23°C° 0 mm 4 mps 749 mmHg 47%
16:00 +22°C° 0 mm 4 mps 749 mmHg 48%
17:00 +22°C° 0 mm 4 mps 749 mmHg 49%
18:00 +21°C° 0 mm 3 mps 749 mmHg 53%
19:00 +20°C° 0 mm 3 mps 749 mmHg 57%
20:00 +18°C° 0 mm 2 mps 749 mmHg 62%
21:00 +17°C° 0 mm 2 mps 750 mmHg 66%
22:00 +16°C° 0 mm 2 mps 750 mmHg 70%
23:00 +15°C° 0 mm 2 mps 750 mmHg 74%

4 August, Wednesday

Time Temperature Precipitation Wind Pressure Humidity
00:00 +14°C° 0 mm 2 mps 750 mmHg 76%
01:00 +14°C° 0 mm 2 mps 751 mmHg 78%
02:00 +13°C° 0 mm 2 mps 751 mmHg 80%
03:00 +13°C° 0 mm 2 mps 751 mmHg 80%
04:00 +13°C° 0 mm 1 mps 751 mmHg 80%
05:00 +13°C° 0 mm 1 mps 751 mmHg 80%
06:00 +15°C° 0 mm 1 mps 751 mmHg 72%
07:00 +18°C° 0 mm 1 mps 751 mmHg 65%
08:00 +20°C° 0 mm 1 mps 752 mmHg 57%
09:00 +21°C° 0 mm 2 mps 752 mmHg 52%
10:00 +23°C° 0 mm 2 mps 752 mmHg 46%
11:00 +25°C° 0 mm 2 mps 752 mmHg 41%
12:00 +26°C° 0 mm 2 mps 751 mmHg 39%
13:00 +26°C° 0 mm 1 mps 751 mmHg 37%
14:00 +27°C° 0 mm 1 mps 751 mmHg 35%
15:00 +27°C° 0 mm 1 mps 751 mmHg 36%
16:00 +27°C° 0 mm 1 mps 750 mmHg 37%
17:00 +27°C° 0 mm 1 mps 750 mmHg 38%
18:00 +25°C° 0 mm 2 mps 750 mmHg 43%
19:00 +23°C° 0 mm 2 mps 750 mmHg 49%
20:00 +20°C° 0 mm 2 mps 750 mmHg 54%
21:00 +19°C° 0 mm 3 mps 750 mmHg 55%
22:00 +18°C° 0 mm 3 mps 750 mmHg 56%
23:00 +18°C° 0 mm 3 mps 749 mmHg 57%
Show more